Home   Weather   Downey   Past weeks

Flag for USA Past Weather in Downey, California, USA — Yesterday and Last 2 Weeks

Now
59 °F

Clear.


Feels Like: 56 °F
Forecast: 44 / 59 °F
Wind: 15 mph from West

Location: Long Beach Airport

Current Time: Feb 22, 2017 at 6:42:44 pm

Latest Report: Feb 22, 2017 at 5:53 pm


Visibility: 10 mi

Pressure: 30.02 "Hg

Humidity: 64%

Dew Point: 47 °F

Location of DowneyLocation

Past Weather in Downey — Graph

°F

Downey Temperature Yesterday

Maximum temperature yesterday: 67 °F (at 12:53 pm)
Minimum temperature yesterday: 57 °F (at 11:53 pm)
Average temperature yesterday: 62 °F

High & Low Weather Summary for the Past Weeks

 TemperatureHumidityPressure
High79 °F (Feb 15, 1:53 pm)100% (Feb 9, 4:53 am)30.35 "Hg (Feb 9, 4:53 am)
Low13 °F (Feb 18, 11:05 am)20% (Feb 15, 1:53 pm)29.46 "Hg (Feb 17, 3:53 pm)
Average58 °F83%30.02 "Hg
* Reported Feb 7 4:53 pm — Feb 22 4:53 pm, Downey, Weather by CustomWeather, © 2017

Note: Actual official high and low records may vary slightly from our data, if they occured in-between our weather recording intervals... More about our weather records

Advertising

Downey Weather History for the Previous 24 Hours

Scroll right to see more
 ConditionsComfort  
Time TempWeatherWind HumidityBarometerVisibility
4:53 pm
Wed, Feb 22
61 °FSunny.13 mph54%30.02 "Hg10 mi
3:53 pm62 °FSunny.10 mph48%30.03 "Hg10 mi
2:53 pm61 °FSunny.14 mph52%30.04 "Hg10 mi
1:53 pm63 °FPassing clouds.15 mph43%30.05 "Hg10 mi
12:53 pm63 °FSunny.8 mph47%30.08 "Hg10 mi
11:53 am63 °FScattered clouds.9 mph52%30.10 "Hg10 mi
10:53 am63 °FSunny.10 mph54%30.12 "Hg10 mi
9:53 am62 °FScattered clouds.8 mph60%30.14 "Hg10 mi
8:53 am59 °FSunny.6 mph75%30.14 "Hg9 mi
7:53 am57 °FSunny.No wind81%30.14 "Hg8 mi
6:53 am53 °FPassing clouds.7 mph86%30.14 "Hg9 mi
5:53 am53 °FClear.6 mph89%30.13 "Hg10 mi
4:53 am54 °FClear.3 mph93%30.14 "Hg10 mi
3:53 am56 °FClear.7 mph93%30.14 "Hg10 mi
3:36 am56 °FPassing clouds.5 mph90%30.15 "Hg10 mi
2:53 am57 °FPassing clouds.No wind93%30.15 "Hg9 mi
2:24 am56 °FPassing clouds.6 mph93%30.16 "Hg10 mi
1:53 am57 °FClear.No wind90%30.17 "Hg10 mi
1:05 am57 °FLow clouds.5 mph96%30.19 "Hg9 mi
12:53 am57 °FLow clouds.6 mph96%30.19 "Hg9 mi
11:53 pm
Tue, Feb 21
57 °FFog.10 mph100%30.21 "Hg6 mi
11:17 pm58 °FFog.9 mph97%30.21 "Hg6 mi
10:53 pm58 °FPassing clouds.9 mph97%30.21 "Hg8 mi
9:53 pm60 °FOvercast.10 mph90%30.22 "Hg10 mi
8:53 pm61 °FOvercast.8 mph83%30.22 "Hg10 mi
7:53 pm61 °FMostly cloudy.6 mph83%30.22 "Hg10 mi
6:53 pm61 °FOvercast.6 mph83%30.22 "Hg10 mi
Weather by CustomWeather, © 2017

See weather overviewHow to use our weather pages